Theta_e
322 330 347 348 349 349 349 349 348 348 348 349 349 349 348 347 347 347 347 346 346 348 348 347 347 348 347 346 346 346 345 344 343 343 343 343 347 350 351 351 350 347 350
324 331 346 348 348 349 350 349 348 348 348 349 349 346 344 345 345 346 345 345 347 347 347 346 344 343 343 342 342 341 341 339 338 339 341 339 341 349 351 351 350 348 351
327 332 339 347 349 349 350 350 349 348 349 346 347 345 345 344 342 340 342 343 344 344 343 340 338 337 336 335 336 336 335 333 331 330 333 332 334 346 348 350 349 347 348
328 330 334 344 347 348 350 350 349 349 348 346 345 343 341 341 341 339 337 338 339 340 337 334 331 329 328 328 328 327 325 324 320 318 314 318 322 339 347 347 346 345 344
325 328 331 342 345 346 347 347 348 347 346 343 340 339 338 337 336 335 334 336 336 334 331 329 326 325 324 324 322 321 321 318 315 309 306 310 313 329 342 345 344 344 344
322 325 333 341 342 343 343 345 343 344 341 338 337 338 337 335 333 330 329 330 329 327 326 324 322 322 321 321 321 320 316 314 309 303 306 313 316 334 343 344 344 345 344
318 321 327 339 341 340 340 342 341 340 339 337 336 336 335 331 328 326 324 325 324 323 322 321 321 321 321 319 318 317 314 311 300 301 303 308 317 333 337 338 339 341 343
317 319 324 333 337 338 339 341 340 338 338 336 335 333 329 326 324 323 322 321 321 321 320 320 319 318 317 316 315 314 312 308 300 299 301 305 321 329 331 331 332 333 335
315 317 320 323 329 332 335 336 337 338 335 334 332 329 325 323 322 320 320 320 320 320 320 316 316 315 315 314 312 310 309 306 295 297 301 304 320 325 327 327 328 329 330
313 314 315 317 319 320 322 329 331 332 332 330 328 326 324 322 320 319 320 320 319 319 316 314 313 313 312 310 309 307 304 302 294 295 298 305 316 320 323 324 324 325 326
310 311 312 313 314 314 315 318 324 328 327 325 323 321 313 304 306 306 310 319 317 316 314 312 310 308 307 307 306 303 300 292 292 293 296 308 313 317 319 320 321 322 323
307 309 310 309 310 310 313 312 313 315 314 311 309 306 300 298 299 302 309 316 315 314 311 309 307 303 296 291 292 295 290 291 291 292 294 306 310 314 316 317 319 320 321
310 310 309 308 307 306 307 307 307 306 305 304 302 299 296 295 298 298 297 296 295 299 293 294 291 290 290 290 289 288 289 289 289 290 295 304 308 311 313 315 317 319 320
305 308 308 307 305 304 303 305 304 304 301 300 298 296 292 292 293 293 291 289 289 288 288 288 288 288 288 289 288 288 287 288 288 289 291 301 305 310 313 315 317 318 318
300 306 306 306 306 305 301 302 301 301 301 298 295 295 292 292 291 290 289 288 287 287 287 287 287 287 287 287 287 287 287 287 288 288 289 298 303 307 311 314 315 315 317
299 302 306 305 306 304 303 301 303 301 297 295 293 294 292 292 290 289 288 287 286 286 286 286 286 286 286 286 286 286 287 287 287 288 289 290 301 305 308 311 312 312 314
297 297 301 304 305 303 303 300 300 299 296 294 293 292 292 291 290 289 288 286 286 286 286 285 285 285 284 285 284 285 286 287 287 288 289 289 290 299 305 310 311 312 312
298 295 296 302 303 302 302 299 298 296 296 295 292 292 291 291 289 288 287 286 286 285 285 284 283 283 283 283 283 284 284 286 287 288 287 288 289 290 296 303 305 308 310
297 296 294 297 299 301 301 297 296 294 295 294 291 291 291 290 289 288 287 285 285 284 284 284 283 282 282 282 283 283 284 285 286 287 285 287 287 288 288 294 296 298 302
296 296 295 294 297 297 298 293 291 290 291 290 291 290 290 290 289 288 286 285 285 284 283 282 282 282 282 282 283 283 283 284 284 284 285 287 286 287 286 286 287 289 298
292 293 293 292 294 295 293 291 290 292 290 290 290 290 290 289 288 287 286 284 284 283 283 282 282 282 281 281 281 282 282 284 284 284 284 284 285 285 285 286 286 287 289
293 292 292 292 292 294 294 294 291 294 290 291 290 288 289 287 287 287 286 284 284 282 282 282 282 281 281 280 280 279 279 280 282 284 283 284 282 284 284 285 285 286 287
291 290 292 292 291 293 293 291 285 285 284 284 285 286 286 287 286 286 286 285 284 283 282 281 281 282 280 280 280 281 278 278 278 281 282 282 281 282 282 283 284 285 286
292 291 291 291 290 292 292 290 289 289 288 289 290 290 287 286 286 286 285 284 284 283 281 281 281 280 281 279 281 282 280 280 277 277 279 280 281 281 281 282 283 284 285
291 290 289 290 289 291 291 291 290 290 291 286 286 286 286 285 285 285 284 283 283 282 281 282 280 280 280 280 280 279 279 278 278 277 276 278 279 280 281 281 282 283 285
288 287 287 288 288 289 290 290 290 290 284 285 284 285 284 284 283 283 283 283 283 282 281 281 281 280 280 280 279 279 279 277 277 277 276 276 276 278 279 280 281 282 284
Wind_Speed
5 7 12 15 14 14 14 12 10 9 8 9 10 9 8 8 7 7 6 4 4 7 11 11 12 13 14 11 11 12 14 15 16 15 14 14 14 9 6 7 6 5 8
7 7 11 14 16 15 15 14 12 11 11 11 11 10 8 7 8 10 9 7 9 11 11 12 13 13 13 13 14 13 15 15 15 15 15 14 14 15 9 8 6 5 9
10 7 7 10 14 13 13 13 13 13 13 11 10 11 11 11 8 6 8 8 11 12 12 12 10 9 11 9 12 12 12 12 13 14 14 7 7 15 10 8 9 12 12
9 7 6 10 10 11 12 13 13 14 14 12 12 10 10 10 11 9 6 6 7 9 8 8 9 9 10 10 11 10 11 12 13 13 7 7 8 14 13 9 8 9 10
7 7 6 9 12 10 12 13 12 14 15 12 10 10 10 10 9 9 8 8 8 8 8 8 9 9 9 10 11 11 12 12 13 10 6 5 5 9 11 11 6 6 8
7 7 9 12 14 12 10 11 10 11 11 12 12 12 12 10 10 10 8 9 10 9 8 9 9 10 11 11 11 12 13 13 12 7 6 6 5 9 12 12 14 3 5
6 5 6 12 13 16 16 14 14 13 13 13 13 12 12 11 10 9 8 9 9 9 9 9 10 10 11 11 11 12 13 13 6 6 5 6 6 11 11 12 14 17 8
8 6 5 9 11 12 15 15 15 15 14 15 14 13 12 11 10 10 9 9 9 9 9 11 11 10 10 11 11 12 13 12 7 6 6 5 10 11 12 12 12 14 12
5 6 6 6 7 10 11 12 13 15 15 15 15 14 13 12 12 11 10 11 11 11 11 10 10 10 10 11 11 12 12 13 6 4 6 4 11 10 10 11 11 11 11
6 6 6 5 6 6 5 10 9 12 13 13 12 11 11 10 11 10 8 11 12 12 12 11 10 10 10 10 11 11 11 11 6 5 4 5 11 11 11 11 10 10 11
5 7 7 7 6 6 6 6 9 12 11 12 10 12 9 4 5 6 5 11 12 13 12 12 11 10 10 10 10 10 9 4 5 4 3 11 11 11 10 10 10 9 9
10 11 8 7 7 7 5 6 6 6 5 6 6 7 5 5 5 5 3 8 10 11 11 11 11 10 7 3 3 6 3 4 4 4 3 12 11 10 9 9 9 9 9
14 8 11 9 7 7 6 4 3 3 4 4 7 7 6 4 3 3 3 3 3 6 3 5 5 4 5 3 4 4 4 4 3 3 5 11 10 9 8 8 8 8 9
12 13 10 10 9 8 5 5 5 5 4 5 5 7 5 4 4 4 3 4 3 2 4 3 3 4 4 4 4 4 4 3 2 2 4 9 9 9 9 8 9 9 10
12 13 13 12 12 10 9 5 5 6 6 6 6 7 6 5 5 5 5 4 4 3 4 4 4 4 3 3 3 4 4 4 5 2 2 9 10 10 9 9 8 9 9
15 16 14 17 15 13 13 11 9 7 6 6 5 7 7 5 5 5 5 4 4 4 3 3 3 3 3 3 4 4 4 4 4 5 3 4 11 11 11 10 10 10 10
17 14 18 17 16 16 17 12 9 8 7 7 7 7 8 7 7 7 5 5 4 3 5 4 3 2 3 1 2 2 3 3 3 4 4 4 5 12 13 13 13 12 10
14 18 16 16 18 18 17 12 9 9 9 8 7 7 9 8 8 7 6 5 5 4 4 4 3 2 2 2 1 3 3 3 4 5 5 4 4 5 10 18 16 14 13
16 15 16 18 19 19 15 11 11 10 9 7 6 7 9 9 9 7 6 5 6 5 4 4 2 2 1 1 1 3 4 4 4 4 6 6 7 6 4 13 16 15 13
13 15 15 15 17 17 11 7 5 5 6 5 7 8 9 8 9 8 6 7 6 5 4 3 3 3 2 0 1 4 4 3 4 4 5 4 5 6 5 6 5 6 15
8 10 14 14 15 14 12 12 7 12 9 8 8 12 12 9 10 9 6 7 6 7 6 6 4 4 1 1 2 3 4 4 5 4 3 4 5 5 5 5 4 4 5
11 13 12 15 15 15 12 11 4 10 6 8 7 8 10 10 10 10 10 9 9 6 7 7 6 4 2 1 4 2 2 2 2 2 2 3 5 3 5 6 6 6 5
10 13 15 16 17 16 12 8 4 6 4 4 4 6 8 12 13 12 12 10 10 8 8 7 6 6 5 1 2 5 2 4 1 1 1 1 4 4 4 4 5 4 5
12 8 9 10 13 14 17 15 15 10 10 10 11 9 10 13 13 13 12 11 11 7 7 7 5 4 5 5 2 2 4 4 4 1 1 2 2 2 3 3 3 3 4
7 9 9 12 13 13 16 17 15 14 9 4 5 9 10 9 11 12 12 11 10 8 7 9 7 7 4 5 4 4 2 4 3 3 3 3 2 1 3 4 3 3 4
5 2 7 10 11 10 12 13 16 14 8 9 8 10 8 7 7 10 12 12 11 10 10 9 7 8 6 4 3 4 5 5 4 4 2 3 2 2 2 1 2 3 4
Wind_Direction
234 189 177 173 173 175 173 170 168 163 159 148 153 137 119 113 114 119 116 120 111 105 94 85 70 58 54 52 55 49 43 32 25 18 18 18 19 21 74 65 56 23 24
148 178 179 177 180 181 179 174 175 174 174 156 152 151 138 138 135 108 83 77 93 87 79 73 64 58 49 40 40 36 35 28 24 16 19 19 13 17 56 57 34 43 43
153 167 173 165 181 182 180 173 177 186 168 164 146 146 142 127 103 92 97 92 89 87 80 72 68 56 55 55 47 36 29 22 30 24 21 16 359 13 35 59 47 35 29
157 160 167 170 166 176 179 175 178 173 161 151 136 134 124 123 128 119 129 112 110 99 97 102 91 82 69 62 58 47 36 28 27 31 21 14 5 4 11 23 38 46 37
156 158 164 170 176 179 170 167 177 167 160 147 145 163 166 163 156 150 146 134 129 114 112 102 92 83 79 73 67 52 48 41 40 38 23 8 13 350 1 3 18 36 37
162 159 171 174 183 179 182 172 173 170 168 169 177 186 169 162 155 152 141 130 122 122 112 99 92 87 83 76 67 67 59 53 48 36 31 18 7 9 12 24 20 3 34
162 165 172 179 186 192 192 186 185 184 177 183 182 171 162 158 153 144 141 129 125 115 105 98 90 84 79 74 68 61 60 56 53 47 23 17 350 30 28 19 25 27 19
158 169 183 187 196 190 198 196 188 189 183 180 176 169 164 158 156 151 143 133 122 113 106 94 90 86 79 76 73 67 60 57 46 43 26 7 19 29 32 28 25 25 23
159 165 183 185 176 184 195 184 187 182 179 179 173 172 166 163 160 151 147 139 131 122 109 99 90 84 78 71 68 64 61 61 55 44 23 351 15 24 24 23 20 18 21
179 185 189 186 173 176 186 175 188 173 174 174 171 163 155 156 153 147 155 143 138 130 122 113 107 101 85 74 65 59 53 51 49 43 20 4 16 18 17 17 15 15 16
224 205 191 186 184 177 175 180 176 169 169 166 158 140 117 117 116 119 180 151 144 137 128 120 112 102 89 77 71 59 52 38 42 32 10 21 18 18 16 16 12 13 16
214 212 202 193 187 175 174 178 165 161 153 145 139 128 130 145 150 158 158 142 139 134 128 119 109 98 86 73 48 57 50 52 43 32 6 13 18 15 9 12 10 10 15
210 202 200 195 184 178 185 171 162 156 147 149 152 148 148 147 147 113 85 62 61 82 64 89 86 73 77 67 53 51 43 41 28 24 4 12 10 13 18 12 17 12 20
200 207 195 192 188 192 174 182 172 168 164 166 168 156 153 155 159 150 141 149 146 142 123 116 118 120 103 88 70 58 49 39 39 14 11 22 21 22 25 28 29 26 20
214 205 197 188 195 191 188 181 179 187 181 173 168 170 161 166 164 150 157 160 161 153 152 146 140 123 106 94 76 66 46 29 18 22 21 13 30 33 35 35 41 35 34
217 207 192 197 193 185 195 190 192 185 175 171 174 178 172 165 157 163 160 170 168 165 144 139 137 113 84 61 45 35 38 33 28 31 31 13 35 39 34 34 38 38 39
215 202 199 194 191 193 196 192 188 184 174 182 185 175 174 171 169 165 161 165 171 153 136 135 110 101 109 125 99 61 48 23 39 54 48 37 34 38 46 46 41 37 40
205 201 191 191 191 196 197 189 187 182 183 186 181 175 178 176 169 162 158 168 153 154 157 150 139 124 113 81 16 26 45 42 45 59 51 44 47 43 40 49 42 42 40
210 200 196 188 192 193 194 186 187 179 187 185 172 178 181 179 171 164 163 159 154 156 167 154 113 130 121 35 22 42 38 47 56 49 57 59 52 50 41 26 31 30 25
207 201 194 190 192 185 177 162 150 162 182 158 181 185 179 182 171 159 155 155 154 154 166 161 138 67 116 30 50 72 62 74 64 65 84 71 54 47 30 29 23 20 30
203 191 195 186 186 170 172 172 177 195 183 189 188 187 185 178 173 168 160 157 162 172 174 163 126 144 63 14 108 57 45 85 56 50 73 55 53 34 31 30 23 22 14
209 199 190 192 180 184 184 186 172 181 193 193 179 182 179 169 170 170 169 176 173 162 167 175 159 145 137 42 130 102 60 359 43 63 100 89 48 47 40 29 24 17 21
224 201 197 192 182 181 173 152 82 86 67 124 174 182 184 178 176 176 176 175 177 173 180 181 170 166 146 58 70 139 110 217 357 317 305 97 55 44 35 20 30 24 36
242 205 182 175 179 180 169 171 178 187 182 202 193 191 189 185 179 177 177 177 178 174 172 178 173 173 135 155 116 71 72 135 166 316 312 300 345 77 23 347 11 42 66
226 192 184 164 170 184 187 184 183 192 189 146 145 166 179 184 185 181 177 172 175 178 176 172 170 175 179 149 150 153 93 52 66 126 227 318 6 298 337 327 343 26 48
345 192 158 168 167 170 187 194 199 197 150 149 158 168 172 176 179 185 180 182 182 177 176 180 176 173 178 158 152 161 160 163 179 156 167 231 235 289 298 355 47 63 59